1515834001.11,46274,7.13,73484.5,-11.73,-13.87,-13.87,0,*67
1515834002.36,46275,7.13,73482.5,-11.73,-13.93,-13.87,0,*63
1515834003.62,46276,7.13,73482.3,-11.73,-13.93,-13.87,0,*60
1515834004.88,46277,7.13,73484.3,-11.73,-13.87,-13.65,0,*68
1515834006.14,46278,7.13,73482.5,-11.73,-13.65,-13.61,0,*6F
1515834007.42,46279,7.19,73484.8,-11.71,-13.61,-13.55,0,*6F
1515834008.71,46280,7.13,73482.3,-11.71,-13.87,-13.83,0,*6A
1515834009.98,46281,7.13,73480.0,-11.71,-13.87,-13.73,0,*64
1515834011.28,46282,7.13,73480.5,-11.71,-13.97,-13.83,0,*69
1515834012.52,46283,7.13,73480.5,-11.71,-13.69,-13.69,0,*6D
1515834013.76,46284,7.13,73478.3,-11.71,-13.73,-13.73,0,*6A
1515834015.0,46285,7.13,73482.0,-11.73,-13.73,-13.65,0,*6E
1515834016.24,46286,7.13,73482.3,-11.71,-13.73,-13.69,0,*63
1515834017.49,46287,7.19,73484.0,-11.71,-13.73,-13.55,0,*6D
1515834018.74,46288,7.13,73486.0,-11.71,-13.55,-13.55,0,*66
1515834019.98,46289,7.13,73484.8,-11.71,-13.73,-13.73,0,*67
1515834021.21,46290,7.19,73486.3,-11.73,-13.93,-13.93,0,*6D
1515834022.48,46291,7.13,73486.8,-11.71,-13.69,-13.61,0,*66
1515834023.73,46292,7.13,73488.5,-11.71,-13.73,-13.73,0,*6D
1515834025.03,46293,7.13,73484.0,-11.71,-13.97,-13.83,0,*69
1515834026.33,46294,7.13,73484.5,-11.73,-14.01,-14.01,0,*69
1515834027.59,46295,7.19,73484.3,-11.73,-13.87,-13.73,0,*63
1515834028.87,46296,7.13,73486.0,-11.73,-13.87,-13.79,0,*6A
1515834030.16,46297,7.13,73484.0,-11.71,-13.87,-13.83,0,*6C
1515834031.44,46298,7.13,73484.3,-11.73,-13.79,-13.79,0,*65
1515834032.69,46299,7.13,73486.3,-11.73,-13.93,-13.79,0,*60
1515834033.95,46300,7.13,73482.0,-11.73,-13.79,-13.65,0,*68
1515834035.19,46301,7.13,73486.3,-11.73,-13.73,-13.65,0,*63
1515834036.45,46302,7.19,73490.0,-11.73,-13.73,-13.61,0,*64
1515834037.73,46303,7.13,73486.5,-11.71,-13.69,-13.61,0,*6C
1515834038.94,46304,7.19,73488.5,-11.69,-13.55,-13.43,0,*6D
1515834040.18,46305,7.19,73490.5,-11.73,-13.65,-13.55,0,*63
1515834041.43,46306,7.19,73488.5,-11.71,-13.55,-13.51,0,*65
1515834042.66,46307,7.13,73484.3,-11.73,-13.65,-13.55,0,*61
1515834043.91,46308,7.13,73488.0,-11.71,-13.55,-13.51,0,*6B
1515834045.21,46309,7.13,73488.3,-11.71,-13.61,-13.61,0,*6E
1515834046.45,46310,7.13,73484.3,-11.71,-13.69,-13.55,0,*69
1515834047.73,46311,7.13,73484.5,-11.71,-13.73,-13.61,0,*64
1515834049.0,46312,7.13,73484.5,-11.71,-13.61,-13.55,0,*63
1515834050.24,46313,7.13,73484.8,-11.71,-13.55,-13.43,0,*62
1515834051.46,46314,7.13,73486.5,-11.69,-13.55,-13.55,0,*6B
1515834052.76,46315,7.13,73484.0,-11.71,-13.97,-13.83,0,*66
1515834054.0,46316,7.13,73486.8,-11.71,-13.73,-13.69,0,*6B
1515834055.27,46317,7.19,73490.8,-11.71,-13.69,-13.61,0,*69
1515834056.53,46318,7.19,73488.0,-11.71,-13.51,-13.51,0,*6E
1515834057.77,46319,7.13,73488.0,-11.71,-13.43,-13.43,0,*6F
1515834059.01,46320,7.13,73486.5,-11.71,-13.43,-13.43,0,*65
1515834060.23,46321,7.13,73486.0,-11.69,-13.51,-13.43,0,*6E
1515834061.48,46322,7.19,73486.0,-11.71,-13.55,-13.51,0,*63
1515834062.73,46323,7.13,73484.3,-11.71,-13.51,-13.43,0,*65
1515834063.98,46324,7.13,73486.0,-11.71,-13.55,-13.51,0,*65
1515834065.22,46325,7.19,73486.8,-11.71,-13.69,-13.55,0,*6F
1515834066.5,46326,7.19,73490.0,-11.71,-13.51,-13.37,0,*63
1515834067.75,46327,7.13,73486.0,-11.69,-13.51,-13.37,0,*6B
1515834068.99,46328,7.13,73484.3,-11.69,-13.43,-13.29,0,*68
1515834070.22,46329,7.13,73482.5,-11.69,-13.43,-13.29,0,*69
1515834071.47,46330,7.13,73484.8,-11.71,-13.69,-13.55,0,*6B
1515834072.74,46331,7.13,73484.0,-11.71,-13.69,-13.61,0,*6D
1515834073.99,46332,7.13,73486.0,-11.69,-13.69,-13.61,0,*67
1515834075.29,46333,7.13,73480.5,-11.71,-13.97,-13.87,0,*66
1515834076.54,46334,7.13,73484.3,-11.69,-14.15,-14.01,0,*6C
1515834077.79,46335,7.19,73490.0,-11.71,-14.23,-14.11,0,*60
1515834079.07,46336,7.13,73484.3,-11.71,-14.23,-14.01,0,*62
1515834080.38,46337,7.13,73484.0,-11.71,-14.01,-13.97,0,*6B
1515834081.65,46338,7.19,73486.5,-11.71,-13.87,-13.73,0,*67
1515834082.92,46339,7.13,73482.3,-11.71,-13.83,-13.69,0,*69
1515834084.19,46340,7.13,73486.5,-11.71,-13.69,-13.61,0,*6B
1515834085.44,46341,7.13,73486.0,-11.71,-13.73,-13.55,0,*66
1515834086.69,46342,7.13,73488.0,-11.71,-13.55,-13.55,0,*61
1515834087.91,46343,7.19,73488.3,-11.73,-13.65,-13.47,0,*62
1515834089.18,46344,7.19,73486.0,-11.71,-13.61,-13.43,0,*67
1515834090.46,46345,7.19,73484.5,-11.71,-13.97,-13.73,0,*6C
1515834091.7,46346,7.13,73484.0,-11.69,-13.83,-13.69,0,*68
1515834092.97,46347,7.13,73482.3,-11.71,-13.83,-13.69,0,*60
1515834094.24,46348,7.19,73482.3,-11.71,-13.87,-13.69,0,*6B
1515834095.51,46349,7.19,73482.8,-11.71,-13.87,-13.73,0,*61
1515834096.75,46350,7.13,73482.5,-11.71,-13.73,-13.73,0,*62
1515834098.06,46351,7.13,73484.3,-11.71,-14.01,-13.97,0,*6B
1515834099.33,46352,7.13,73484.3,-11.71,-14.43,-14.29,0,*6C
1515834100.62,46353,7.19,73488.0,-11.73,-14.47,-14.43,0,*67
1515834101.9,46354,7.13,73484.3,-11.73,-14.47,-14.33,0,*67
1515834103.16,46355,7.13,73484.5,-11.75,-14.47,-14.43,0,*67
1515834104.38,46356,7.19,73486.8,-11.75,-14.29,-14.19,0,*63
1515834105.62,46357,7.19,73484.8,-11.75,-14.01,-13.93,0,*6D
1515834106.89,46358,7.19,73484.3,-11.75,-14.05,-14.05,0,*6E
1515834108.12,46359,7.13,73484.0,-11.75,-14.15,-14.15,0,*6F
1515834109.39,46360,7.13,73484.8,-11.73,-14.15,-14.05,0,*62
1515834110.63,46361,7.13,73486.5,-11.73,-14.29,-14.15,0,*6D
1515834111.87,46362,7.13,73486.8,-11.75,-14.43,-14.33,0,*60
1515834113.11,46363,7.19,73484.3,-11.75,-14.29,-14.05,0,*68
1515834114.39,46364,7.13,73486.5,-11.75,-14.05,-14.01,0,*65
1515834115.63,46365,7.19,73486.5,-11.81,-14.23,-14.11,0,*6A
1515834116.86,46366,7.13,73480.5,-11.79,-14.23,-14.19,0,*66
1515834118.13,46367,7.13,73486.3,-11.81,-14.11,-14.05,0,*6C
1515834119.38,46368,7.19,73484.8,-11.81,-14.19,-14.11,0,*6E
1515834120.65,46369,7.13,73484.5,-11.79,-14.05,-14.05,0,*60
1515834121.9,46370,7.19,73488.3,-11.81,-14.11,-14.11,0,*6F
1515834123.18,46371,7.13,73486.5,-11.79,-13.97,-13.97,0,*69
1515834124.45,46372,7.19,73490.8,-11.81,-14.05,-13.93,0,*65
1515834125.72,46373,7.19,73490.0,-11.79,-13.97,-13.83,0,*6E
1515834126.96,46374,7.19,73488.5,-11.79,-13.93,-13.83,0,*6D
1515834128.25,46375,7.19,73490.3,-11.81,-13.97,-13.83,0,*6F
1515834129.51,46376,7.13,73486.8,-11.81,-13.93,-13.79,0,*6D
1515834130.8,46377,7.13,73490.5,-11.81,-13.79,-13.79,0,*68
1515834132.04,46378,7.13,73484.3,-11.79,-13.83,-13.69,0,*64
1515834133.32,46379,7.13,73482.3,-11.79,-13.97,-13.83,0,*64
1515834134.61,46380,7.13,73486.0,-11.81,-13.83,-13.79,0,*65
1515834135.84,46381,7.13,73484.0,-11.79,-13.93,-13.79,0,*62
1515834137.11,46382,7.13,73482.8,-11.81,-13.83,-13.93,0,*63
1515834138.39,46383,7.13,73482.8,-11.79,-13.97,-13.97,0,*64
1515834139.68,46384,7.19,73484.0,-11.81,-13.83,-13.79,0,*61
1515834140.98,46385,7.13,73484.3,-11.81,-13.83,-13.79,0,*60
1515834142.25,46386,7.13,73482.8,-11.79,-14.05,-14.05,0,*61
1515834143.5,46387,7.13,73480.0,-11.81,-14.19,-14.11,0,*6F
1515834144.76,46388,7.13,73480.0,-11.81,-13.93,-13.83,0,*69
1515834146.0,46389,7.19,73484.8,-11.79,-13.93,-13.83,0,*6F
1515834147.27,46390,7.13,73480.5,-11.81,-13.97,-13.93,0,*65
1515834148.55,46391,7.13,73482.0,-11.81,-14.11,-13.97,0,*69
1515834149.81,46392,7.13,73480.8,-11.81,-13.93,-13.83,0,*62
1515834151.06,46393,7.19,73486.3,-11.81,-14.11,-14.11,0,*62
1515834152.35,46394,7.19,73486.5,-11.81,-13.97,-13.79,0,*65
1515834153.61,46395,7.13,73486.5,-11.81,-13.79,-13.69,0,*65
1515834154.88,46396,7.19,73484.3,-11.81,-13.93,-13.83,0,*66
1515834156.15,46397,7.13,73484.8,-11.81,-14.11,-14.05,0,*63
1515834157.38,46398,7.13,73484.0,-11.83,-14.15,-14.15,0,*6B
1515834158.63,46399,7.13,73484.8,-11.83,-14.11,-13.97,0,*63
1515834159.86,46400,7.13,73480.8,-11.83,-14.15,-14.15,0,*6D
1515834161.11,46401,7.19,73488.8,-11.85,-14.15,-14.11,0,*6E
1515834162.33,46402,7.13,73486.5,-11.83,-14.29,-14.15,0,*60
1515834163.57,46403,7.19,73490.3,-11.85,-14.23,-14.11,0,*69
1515834164.82,46404,7.13,73484.8,-11.85,-14.29,-14.29,0,*6F
1515834166.09,46405,7.19,73488.0,-11.85,-14.11,-14.01,0,*6F
1515834167.37,46406,7.13,73484.3,-11.83,-14.01,-14.01,0,*6B
1515834168.61,46407,7.13,73486.0,-11.85,-14.11,-14.11,0,*6C
1515834169.86,46408,7.13,73484.3,-11.83,-14.11,-14.01,0,*64
1515834171.16,46409,7.13,73486.0,-11.85,-13.97,-13.87,0,*63
1515834172.4,46410,7.19,73488.3,-11.85,-13.73,-13.73,0,*6A
1515834173.64,46411,7.13,73486.8,-11.85,-13.69,-13.65,0,*67
1515834174.94,46412,7.13,73482.8,-11.85,-14.01,-13.83,0,*65
1515834176.23,46413,7.13,73484.5,-11.85,-13.97,-13.87,0,*68
1515834177.53,46414,7.19,73484.8,-11.85,-14.01,-13.97,0,*66
1515834178.8,46415,7.13,73484.3,-11.85,-13.83,-13.69,0,*6B
1515834180.04,46416,7.13,73482.8,-11.85,-13.73,-13.65,0,*6B
1515834181.28,46417,7.13,73482.5,-11.85,-13.73,-13.55,0,*69
1515834182.5,46418,7.13,73486.5,-11.83,-13.69,-13.55,0,*6B
1515834183.74,46419,7.19,73486.8,-11.85,-13.65,-13.65,0,*63
1515834184.99,46420,7.13,73490.3,-11.83,-13.83,-13.73,0,*60
1515834186.2,46421,7.13,73486.0,-11.83,-13.73,-13.69,0,*65
1515834187.45,46422,7.13,73484.8,-11.83,-13.83,-13.73,0,*62
1515834188.66,46423,7.19,73484.5,-11.83,-13.73,-13.69,0,*67
1515834189.88,46424,7.19,73484.5,-11.83,-13.73,-13.65,0,*6C
1515834191.12,46425,7.19,73484.5,-11.85,-13.69,-13.55,0,*63
1515834192.34,46426,7.19,73486.0,-11.83,-13.55,-13.55,0,*69
1515834193.56,46427,7.19,73486.3,-11.83,-13.65,-13.55,0,*6B
1515834194.8,46428,7.13,73482.0,-11.83,-13.83,-13.69,0,*63
1515834196.07,46429,7.13,73482.3,-11.83,-13.97,-13.83,0,*63
1515834197.34,46430,7.13,73482.5,-11.83,-13.87,-13.87,0,*6E
1515834198.61,46431,7.13,73484.3,-11.83,-13.97,-13.83,0,*6A
1515834199.83,46432,7.13,73482.8,-11.83,-14.15,-14.11,0,*68
1515834201.06,46433,7.19,73486.3,-11.83,-14.15,-14.11,0,*69
1515834202.33,46434,7.13,73478.3,-11.85,-14.11,-14.01,0,*6D
1515834203.58,46435,7.13,73482.5,-11.83,-14.11,-14.01,0,*6A
1515834204.84,46436,7.13,73484.8,-11.83,-14.11,-13.97,0,*61
1515834206.13,46437,7.13,73484.3,-11.85,-14.01,-13.87,0,*66
1515834207.35,46438,7.13,73486.8,-11.83,-14.15,-14.11,0,*62
1515834208.6,46439,7.13,73484.8,-11.87,-14.01,-13.93,0,*6F
1515834209.86,46440,7.13,73484.3,-11.87,-14.15,-14.05,0,*6C
1515834211.1,46441,7.13,73484.3,-11.83,-14.11,-13.87,0,*60
1515834212.38,46442,7.13,73486.5,-11.85,-14.11,-13.97,0,*64
1515834213.68,46443,7.13,73488.5,-11.85,-13.97,-13.97,0,*6C
1515834214.98,46444,7.13,73488.5,-11.85,-13.97,-13.87,0,*6A
1515834216.26,46445,7.13,73486.5,-11.85,-13.87,-13.83,0,*6E
1515834217.54,46446,7.13,73488.3,-11.87,-14.01,-13.87,0,*62
1515834218.81,46447,7.13,73490.5,-11.85,-14.11,-14.01,0,*69
1515834220.12,46448,7.13,73488.5,-11.85,-13.97,-13.97,0,*67
1515834221.39,46449,7.13,73490.5,-11.85,-13.83,-13.69,0,*62
1515834222.67,46450,7.13,73488.0,-11.85,-13.87,-13.87,0,*6E
1515834223.93,46451,7.13,73486.0,-11.89,-13.93,-13.87,0,*66
1515834225.2,46452,7.13,73488.5,-11.89,-14.01,-13.93,0,*6C
1515834226.47,46453,7.13,73484.0,-11.89,-13.87,-13.73,0,*6A
1515834227.73,46454,7.13,73484.5,-11.87,-13.87,-13.79,0,*69
1515834228.98,46455,7.19,73486.0,-11.87,-14.05,-13.93,0,*61
1515834230.25,46456,7.13,73486.3,-11.87,-14.01,-13.87,0,*63
1515834231.53,46457,7.13,73484.3,-11.87,-14.01,-13.87,0,*62
1515834232.77,46458,7.13,73484.3,-11.87,-13.93,-13.87,0,*61
1515834234.03,46459,7.13,73486.5,-11.89,-13.87,-13.73,0,*60
1515834235.24,46460,7.13,73482.5,-11.87,-13.93,-13.93,0,*6F
1515834236.5,46461,7.13,73482.0,-11.89,-13.93,-13.87,0,*65
1515834237.77,46462,7.13,73486.3,-11.89,-13.73,-13.61,0,*60
1515834239.04,46463,7.13,73486.5,-11.87,-13.87,-13.79,0,*6D
1515834240.31,46464,7.13,73484.5,-11.89,-14.15,-14.05,0,*64
1515834241.57,46465,7.13,73484.5,-11.87,-14.15,-14.01,0,*6F
1515834242.83,46466,7.13,73484.0,-11.89,-13.87,-13.73,0,*6C
1515834244.1,46467,7.13,73484.3,-11.87,-13.87,-13.87,0,*68
1515834245.34,46468,7.13,73486.8,-11.87,-13.93,-13.87,0,*62
1515834246.61,46469,7.13,73486.3,-11.87,-13.79,-13.79,0,*66
1515834247.84,46470,7.19,73488.0,-11.85,-13.69,-13.69,0,*6C
1515834249.09,46471,7.13,73484.8,-11.85,-13.55,-13.55,0,*6D
1515834250.32,46472,7.13,73486.0,-11.85,-13.65,-13.65,0,*6E
1515834251.57,46473,7.13,73484.5,-11.85,-13.73,-13.73,0,*6F
1515834252.86,46474,7.13,73490.3,-11.89,-14.05,-14.05,0,*64
1515834254.09,46475,7.13,73486.0,-11.87,-14.29,-14.29,0,*6B
1515834255.34,46476,7.13,73488.0,-11.87,-14.19,-14.05,0,*65
1515834256.59,46477,7.13,73484.5,-11.87,-14.19,-14.05,0,*64
1515834257.82,46478,7.13,73490.5,-11.87,-14.19,-14.15,0,*6A
1515834259.08,46479,7.13,73486.3,-11.89,-13.93,-13.87,0,*6C
1515834260.32,46480,7.13,73488.5,-11.87,-13.79,-13.73,0,*6B
1515834261.57,46481,7.13,73482.3,-11.87,-13.79,-13.73,0,*6A
1515834262.83,46482,7.13,73482.5,-11.87,-13.87,-13.79,0,*62
1515834264.11,46483,7.13,73484.3,-11.89,-13.79,-13.79,0,*6C
1515834265.39,46484,7.13,73488.5,-11.87,-13.61,-13.61,0,*65
1515834266.65,46485,7.19,73490.0,-11.87,-13.79,-13.79,0,*64
1515834267.9,46486,7.13,73490.3,-11.87,-13.73,-13.61,0,*64
1515834269.17,46487,7.13,73486.8,-11.89,-13.69,-13.61,0,*60
1515834270.41,46488,7.19,73488.5,-11.87,-13.93,-13.87,0,*6C
1515834271.67,46489,7.13,73484.8,-11.89,-13.79,-13.73,0,*6C
1515834272.91,46490,7.13,73484.0,-11.87,-13.79,-13.73,0,*6A
1515834274.2,46491,7.13,73488.0,-11.89,-13.79,-13.79,0,*6F
1515834275.44,46492,7.19,73490.3,-11.87,-13.87,-13.93,0,*67
1515834276.68,46493,7.13,73490.8,-11.87,-13.93,-13.87,0,*66
1515834277.94,46494,7.13,73488.0,-11.89,-13.79,-13.73,0,*60
1515834279.18,46495,7.13,73486.3,-11.87,-13.87,-13.73,0,*6E
1515834280.42,46496,7.13,73484.5,-11.85,-13.73,-13.69,0,*6F
1515834281.64,46497,7.19,73484.3,-11.87,-13.93,-13.73,0,*69
1515834282.85,46498,7.13,73482.5,-11.87,-13.93,-13.93,0,*68
1515834284.09,46499,7.13,73486.3,-11.87,-13.93,-13.79,0,*6D
1515834285.36,46500,7.13,73482.3,-11.89,-13.69,-13.61,0,*6E
1515834286.58,46501,7.19,73486.5,-11.87,-13.73,-13.73,0,*69
1515834287.82,46502,7.13,73484.0,-11.87,-13.79,-13.69,0,*6B
1515834289.1,46503,7.13,73482.3,-11.89,-13.79,-13.79,0,*65
1515834290.37,46504,7.13,73484.0,-11.89,-14.05,-13.93,0,*6A
1515834291.6,46505,7.13,73482.0,-11.87,-13.93,-13.79,0,*69
1515834292.85,46506,7.13,73482.5,-11.87,-13.87,-13.73,0,*65
1515834294.14,46507,7.13,73482.8,-11.89,-14.01,-13.87,0,*68
1515834295.38,46508,7.19,73488.3,-11.87,-13.79,-13.69,0,*61
1515834296.62,46509,7.13,73484.3,-11.89,-13.73,-13.69,0,*64
1515834297.86,46510,7.13,73486.5,-11.87,-13.79,-13.69,0,*68
1515834299.13,46511,7.13,73484.3,-11.89,-13.69,-13.61,0,*6E
1515834300.4,46512,7.19,73488.8,-11.87,-13.87,-13.87,0,*6B
1515834301.66,46513,7.13,73484.3,-11.89,-13.93,-13.87,0,*61
1515834302.9,46514,7.13,73486.3,-11.87,-13.79,-13.73,0,*67
1515834304.17,46515,7.13,73486.0,-11.89,-13.61,-13.55,0,*65
1515834305.41,46516,7.13,73486.5,-11.87,-13.73,-13.61,0,*6C
1515834306.65,46517,7.13,73484.5,-11.87,-13.79,-13.69,0,*6F
1515834307.9,46518,7.19,73486.3,-11.87,-13.69,-13.61,0,*69
1515834309.14,46519,7.13,73482.8,-11.85,-13.69,-13.69,0,*62
1515834310.38,46520,7.13,73482.0,-11.87,-13.79,-13.69,0,*6B
1515834311.62,46521,7.13,73484.3,-11.85,-13.73,-13.73,0,*69
1515834312.86,46522,7.13,73484.3,-11.85,-13.69,-13.65,0,*66
1515834314.13,46523,7.13,73476.8,-11.85,-13.87,-13.73,0,*60
1515834315.43,46524,7.13,73482.5,-11.85,-14.01,-13.97,0,*64
1515834316.7,46525,7.13,73482.5,-11.89,-14.15,-14.05,0,*60
1515834317.93,46526,7.13,73482.8,-11.87,-14.19,-14.15,0,*60
1515834319.15,46527,7.13,73484.0,-11.87,-14.29,-14.19,0,*6E
1515834320.4,46528,7.13,73480.5,-11.87,-14.43,-14.19,0,*6D
1515834321.67,46529,7.13,73484.0,-11.87,-14.43,-14.43,0,*63
1515834322.94,46530,7.13,73484.0,-11.89,-14.43,-14.33,0,*62
1515834324.24,46531,7.13,73484.8,-11.89,-14.01,-14.01,0,*64
1515834325.52,46532,7.13,73484.0,-11.89,-13.87,-13.79,0,*66
1515834326.8,46533,7.13,73482.0,-11.89,-14.15,-14.05,0,*67
1515834328.1,46534,7.13,73484.0,-11.89,-14.05,-14.01,0,*65
1515834329.36,46535,7.13,73484.0,-11.89,-13.87,-13.73,0,*6B
1515834330.65,46536,7.13,73482.3,-11.89,-13.87,-13.79,0,*62
1515834331.89,46537,7.19,73484.3,-11.91,-13.93,-13.83,0,*6A
1515834333.15,46538,7.19,73486.3,-11.91,-13.83,-13.79,0,*61
1515834334.39,46539,7.13,73482.3,-11.87,-13.93,-13.87,0,*67
1515834335.61,46540,7.13,73486.8,-11.91,-14.19,-14.11,0,*63
1515834336.86,46541,7.13,73482.0,-11.91,-14.11,-14.05,0,*6F
1515834338.08,46542,7.13,73480.5,-11.91,-14.23,-14.11,0,*68
1515834339.3,46543,7.13,73486.8,-11.91,-14.23,-14.11,0,*69
1515834340.55,46544,7.13,73486.8,-11.95,-14.19,-14.05,0,*66
1515834341.77,46545,7.13,73486.5,-11.95,-14.23,-14.11,0,*6B
1515834343.0,46546,7.13,73486.3,-11.91,-13.93,-13.79,0,*69
1515834344.28,46547,7.13,73484.5,-11.91,-13.97,-13.97,0,*6C
1515834345.55,46548,7.13,73484.8,-11.91,-13.97,-13.79,0,*63
1515834346.79,46549,7.13,73480.8,-11.91,-13.93,-13.83,0,*63
1515834348.02,46550,7.13,73482.3,-11.91,-13.93,-13.83,0,*6B
1515834349.26,46551,7.13,73484.8,-11.91,-13.93,-13.79,0,*6F
1515834350.52,46552,7.13,73484.3,-11.91,-13.83,-13.79,0,*6D
1515834351.74,46553,7.19,73484.3,-11.91,-13.73,-13.65,0,*6E
1515834353.04,46554,7.13,73484.8,-11.89,-13.61,-13.61,0,*67
1515834354.29,46555,7.13,73484.8,-11.89,-13.93,-13.79,0,*62
1515834355.52,46556,7.13,73486.0,-11.91,-13.93,-13.79,0,*68
1515834356.79,46557,7.13,73486.3,-11.89,-13.61,-13.47,0,*60
1515834358.05,46558,7.19,73488.5,-11.89,-13.87,-13.73,0,*60
1515834359.32,46559,7.19,73486.5,-11.89,-13.69,-13.61,0,*62
1515834360.59,46560,7.13,73488.0,-11.89,-13.73,-13.61,0,*63
1515834361.83,46561,7.13,73484.3,-11.89,-13.69,-13.55,0,*6E
1515834363.07,46562,7.13,73490.0,-11.89,-13.69,-13.55,0,*6D
1515834364.33,46563,7.13,73484.3,-11.89,-13.79,-13.73,0,*69
1515834365.6,46564,7.19,73488.0,-11.89,-13.69,-13.61,0,*6C
1515834366.84,46565,7.13,73486.8,-11.89,-13.93,-13.73,0,*6B
1515834368.12,46566,7.13,73486.3,-11.89,-13.87,-13.79,0,*67
1515834369.41,46567,7.13,73486.5,-11.89,-13.87,-13.87,0,*67
1515834370.69,46568,7.13,73484.8,-11.87,-14.05,-14.01,0,*62
1515834371.97,46569,7.13,73484.5,-11.87,-14.47,-14.43,0,*63
1515834373.27,46570,7.19,73486.3,-11.89,-14.47,-14.47,0,*61
1515834374.55,46571,7.13,73482.0,-11.91,-14.51,-14.51,0,*69
1515834375.8,46572,7.13,73480.8,-11.95,-14.47,-14.33,0,*6D
1515834377.02,46573,7.13,73482.0,-11.91,-14.33,-14.19,0,*63
1515834378.29,46574,7.13,73484.5,-11.91,-14.05,-14.05,0,*6C
1515834379.54,46575,7.13,73486.5,-11.95,-14.11,-14.05,0,*6C
1515834380.79,46576,7.13,73484.0,-11.91,-14.47,-14.33,0,*6D
1515834382.04,46577,7.13,73486.5,-11.95,-14.19,-14.05,0,*66
1515834383.31,46578,7.13,73482.8,-11.95,-13.97,-13.83,0,*61
1515834384.58,46579,7.13,73488.5,-11.91,-13.97,-13.79,0,*61
1515834385.85,46580,7.13,73488.0,-11.95,-13.83,-13.79,0,*66
1515834387.12,46581,7.13,73486.0,-11.95,-13.83,-13.79,0,*67
1515834388.36,46582,7.19,73492.3,-11.95,-13.97,-13.93,0,*65
1515834389.6,46583,7.13,73484.0,-11.95,-13.93,-13.83,0,*61
1515834390.85,46584,7.13,73486.8,-11.95,-13.83,-13.65,0,*6F
1515834392.11,46585,7.13,73488.5,-11.95,-13.83,-13.79,0,*63
1515834393.33,46586,7.19,73486.3,-11.95,-13.73,-13.65,0,*62
1515834394.59,46587,7.13,73486.5,-11.89,-13.79,-13.69,0,*68
1515834395.83,46588,7.13,73484.5,-11.95,-13.93,-13.83,0,*6A
1515834397.09,46589,7.13,73484.8,-11.91,-13.79,-13.79,0,*6E
1515834398.35,46590,7.13,73486.3,-11.91,-13.79,-13.83,0,*63
1515834399.59,46591,7.13,73486.3,-11.91,-13.93,-13.83,0,*66
1515834400.81,46592,7.13,73484.5,-11.91,-14.11,-14.11,0,*64
1515834402.03,46593,7.13,73484.5,-11.95,-14.33,-14.19,0,*69
1515834403.24,46594,7.13,73486.3,-11.95,-14.11,-14.11,0,*66
1515834404.52,46595,7.13,73490.0,-11.91,-13.97,-13.97,0,*63
1515834405.77,46596,7.13,73490.8,-11.95,-14.05,-13.93,0,*6C
1515834407.01,46597,7.13,73488.8,-11.91,-13.93,-13.83,0,*60
1515834408.23,46598,7.13,73490.3,-11.95,-14.19,-14.19,0,*6A
1515834409.48,46599,7.13,73488.3,-11.95,-14.19,-14.05,0,*66
1515834410.76,46600,7.13,73488.0,-11.95,-13.97,-13.97,0,*68
1515834412.02,46601,7.13,73490.3,-11.95,-13.79,-13.83,0,*6C
1515834413.26,46602,7.13,73490.5,-11.95,-13.93,-13.83,0,*6B
1515834414.54,46603,7.13,73490.5,-11.95,-14.05,-13.97,0,*67
1515834415.82,46604,7.13,73488.3,-11.95,-14.05,-13.97,0,*60
1515834417.07,46605,7.13,73488.8,-11.95,-13.83,-13.73,0,*62
1515834418.32,46606,7.13,73490.5,-11.95,-14.11,-13.97,0,*67
1515834419.54,46607,7.13,73488.8,-11.99,-14.29,-14.23,0,*69
1515834420.81,46608,7.13,73486.5,-11.97,-14.11,-14.01,0,*63
1515834422.06,46609,7.13,73484.3,-11.95,-14.05,-13.93,0,*69
1515834423.35,46610,7.13,73486.3,-11.97,-13.83,-13.83,0,*6B
1515834424.63,46611,7.13,73484.0,-11.97,-13.79,-13.79,0,*6A
1515834425.9,46612,7.13,73490.0,-11.97,-13.83,-13.69,0,*6D
1515834427.14,46613,7.13,73484.8,-11.97,-13.69,-13.69,0,*68
1515834428.36,46614,7.13,73490.5,-11.95,-13.73,-13.73,0,*6D
1515834429.57,46615,7.13,73488.5,-11.95,-13.73,-13.65,0,*6B
1515834430.81,46616,7.13,73488.5,-11.95,-13.79,-13.65,0,*62
1515834432.06,46617,7.13,73484.8,-11.95,-13.83,-13.73,0,*61
1515834433.3,46618,7.13,73492.3,-11.95,-13.79,-13.73,0,*6B
1515834434.55,46619,7.13,73490.0,-11.95,-13.83,-13.65,0,*68
1515834435.79,46620,7.13,73492.3,-11.95,-13.79,-13.73,0,*60
1515834437.04,46621,7.13,73494.0,-11.91,-13.83,-13.73,0,*60
1515834438.28,46622,7.13,73494.3,-11.95,-13.97,-13.93,0,*6C
1515834439.55,46623,7.13,73490.3,-11.91,-13.83,-13.79,0,*68
1515834440.79,46624,7.13,73488.8,-11.95,-13.79,-13.73,0,*64
1515834442.03,46625,7.13,73490.0,-11.91,-13.79,-13.73,0,*61
1515834443.26,46626,7.13,73490.5,-11.91,-13.93,-13.79,0,*6C
1515834444.48,46627,7.13,73488.5,-11.95,-14.11,-14.11,0,*6D
1515834445.7,46628,7.13,73486.3,-11.95,-14.11,-14.11,0,*62
1515834446.95,46629,7.13,73488.0,-11.95,-14.11,-14.05,0,*66
1515834448.19,46630,7.13,73486.8,-11.95,-13.97,-13.93,0,*6F
1515834449.41,46631,7.13,73488.0,-11.91,-14.11,-14.11,0,*6E
1515834450.66,46632,7.13,73484.5,-11.95,-13.97,-13.93,0,*6D
1515834451.93,46633,7.13,73488.0,-11.91,-13.97,-13.97,0,*6C
1515834453.18,46634,7.13,73488.5,-11.95,-14.05,-13.93,0,*67
1515834454.43,46635,7.13,73488.5,-11.95,-14.11,-13.97,0,*67
1515834455.64,46636,7.13,73488.3,-11.95,-13.93,-13.93,0,*6D
1515834456.89,46637,7.13,73490.0,-11.95,-13.83,-13.73,0,*63
1515834458.11,46638,7.13,73488.8,-11.95,-13.73,-13.65,0,*64
1515834459.35,46639,7.13,73490.8,-11.91,-13.79,-13.73,0,*6C
1515834460.61,46640,7.13,73486.5,-11.91,-13.79,-13.79,0,*68
1515834461.84,46641,7.13,73488.5,-11.95,-13.93,-13.79,0,*69
1515834463.11,46642,7.13,73490.3,-11.91,-13.83,-13.83,0,*6A
1515834464.34,46643,7.13,73490.5,-11.95,-13.93,-13.79,0,*6B
1515834465.56,46644,7.13,73488.0,-11.95,-13.73,-13.65,0,*6F
1515834466.78,46645,7.13,73490.8,-11.91,-13.73,-13.65,0,*6A
1515834468.02,46646,7.13,73484.3,-11.91,-13.65,-13.61,0,*6A
1515834469.27,46647,7.13,73490.0,-11.95,-13.83,-13.73,0,*64
1515834470.48,46648,7.13,73488.8,-11.91,-13.73,-13.65,0,*67
1515834471.73,46649,7.13,73486.5,-11.91,-13.79,-13.65,0,*6C
1515834472.97,46650,7.13,73488.3,-11.95,-13.65,-13.61,0,*69
1515834474.18,46651,7.13,73488.3,-11.91,-13.65,-13.51,0,*6F
1515834475.43,46652,7.13,73488.0,-11.91,-13.61,-13.51,0,*68
1515834476.64,46653,7.13,73488.3,-11.91,-13.65,-13.65,0,*6A
1515834477.86,46654,7.13,73488.8,-11.91,-13.73,-13.65,0,*6A
1515834479.1,46655,7.13,73488.8,-11.91,-13.65,-13.61,0,*68
1515834480.37,46656,7.13,73488.5,-11.89,-13.69,-13.61,0,*6E
1515834481.61,46657,7.13,73490.5,-11.89,-13.69,-13.69,0,*67
1515834482.88,46658,7.19,73492.5,-11.89,-13.69,-13.61,0,*60
1515834484.14,46659,7.13,73494.3,-11.87,-13.79,-13.79,0,*67
1515834485.41,46660,7.13,73488.8,-11.91,-13.83,-13.83,0,*6A
1515834486.68,46661,7.13,73488.8,-11.91,-13.83,-13.83,0,*6B
1515834487.89,46662,7.13,73488.8,-11.91,-13.93,-13.93,0,*68
1515834489.14,46663,7.13,73486.5,-11.91,-14.05,-13.93,0,*61
1515834490.41,46664,7.19,73494.8,-11.91,-13.83,-13.83,0,*6E
1515834491.67,46665,7.13,73488.0,-11.89,-13.73,-13.79,0,*6C
1515834492.95,46666,7.13,73494.8,-11.89,-13.79,-13.79,0,*65
1515834494.18,46667,7.13,73494.0,-11.89,-13.93,-13.93,0,*64
1515834495.42,46668,7.13,73494.0,-11.91,-13.93,-13.79,0,*66
1515834496.66,46669,7.13,73492.5,-11.91,-13.97,-13.93,0,*67
1515834497.94,46670,7.13,73490.5,-11.91,-13.97,-13.97,0,*6B
1515834499.19,46671,7.13,73492.0,-11.91,-13.97,-13.93,0,*6E
1515834500.41,46672,7.13,73490.0,-11.91,-14.19,-14.11,0,*61
1515834501.63,46673,7.13,73488.8,-11.91,-14.19,-14.19,0,*68